[[{"header":{"parameterUnit":"m.s-1","parameterCategory":1,"la1":30.2991,"la2":30.254,"lo1":-89.0895,"lo2":-89.0444,"dx":0.0017,"dy":0.0017,"nx":28,"ny":28,"refTime":"2022-11-29T09:00:00:Z","depth":0,"parameterNumber":2,"parameterNumberName":"U-component_of_WINDS"},"data":[0,0,0,0,0,0,0,0,0,0,0,0,0,0,0,0,0,0,0,0,0,0,0,0,0,0,0,0,0,0,0,0,0,0,0,0,0,0,0,0,0,0,0,0,0,0,0,0,0,0,0,0,0,0,0,0,0,0,-0.3803,-0.3803,0,-0.3793,-0.3793,-0.3793,-0.3806,-0.3807,-0.3807,-0.3808,-0.3798,-0.3797,-0.3796,0,0,0,0,0,0,0,0,0,0,0,0,0,-0.3834,-0.3833,-0.3803,-0.3803,-0.3803,-0.3793,-0.3793,-0.3793,-0.3806,-0.3807,-0.3807,-0.3808,-0.3798,-0.3797,-0.3796,0,0,0,0,0,0,0,0,0,0,0,0,0,-0.3822,-0.3833,-0.3803,-0.3808,-0.3809,-0.3793,-0.3793,-0.3793,-0.3806,-0.3807,-0.3808,-0.3808,-0.3798,-0.3797,-0.3796,-0.3775,0,0,-0.3793,-0.3792,0,0,0,0,0,0,0,0,-0.3822,-0.3821,-0.3808,-0.3808,-0.3808,-0.3802,-0.38,-0.3787,-0.3806,-0.3807,-0.3808,-0.3809,-0.3798,-0.3797,-0.3794,-0.3774,-0.3774,-0.3793,-0.3792,-0.3791,-0.3791,0,0,0,0,0,0,0,-0.3823,-0.3821,-0.3799,-0.3807,-0.3808,-0.3811,-0.381,-0.3798,-0.3799,-0.3807,-0.3808,-0.3807,-0.3799,-0.3795,-0.3794,-0.3774,-0.3793,-0.3792,-0.3791,-0.3791,-0.3736,-0.3735,0,0,0,0,0,0,-0.3823,-0.3822,-0.3799,-0.3799,-0.3817,-0.381,-0.3809,-0.3803,-0.3799,-0.3799,-0.3806,-0.3807,-0.3796,-0.3795,-0.3793,-0.3768,-0.3791,-0.379,-0.379,-0.3737,-0.3736,-0.3735,0,0,0,0,0,0,-0.3824,-0.3821,-0.38,-0.381,-0.3808,-0.3809,-0.3802,-0.3802,-0.3799,-0.3798,-0.3798,-0.3802,-0.3797,-0.3795,-0.3779,-0.3767,-0.379,-0.3789,-0.3737,-0.3736,-0.3735,-0.3716,0,0,0,0,0,0,-0.3825,-0.3821,-0.3813,-0.381,-0.3807,-0.3785,-0.3801,-0.3802,-0.3797,-0.3798,-0.3794,-0.3794,-0.3797,-0.3781,-0.3778,-0.3766,-0.3788,-0.3738,-0.3737,-0.3735,-0.3718,-0.3715,-0.3712,0,0,0,0,0,-0.3826,-0.3808,-0.3813,-0.381,-0.3797,-0.3785,-0.3783,-0.3787,-0.3796,-0.3787,-0.3787,-0.3794,-0.3769,-0.3779,-0.3776,-0.3764,-0.3739,-0.3737,-0.3736,-0.3719,-0.3715,-0.3712,0,0,0,0,0,0,-0.381,-0.3808,-0.3813,-0.3794,-0.3789,-0.3787,-0.3777,-0.3782,-0.3775,-0.3777,-0.3782,-0.3781,-0.3764,-0.3763,-0.3773,-0.3743,-0.3756,-0.3753,-0.3744,-0.374,-0.3737,-0.3738,-0.3787,0,0,0,0,0,-0.3804,-0.3794,-0.3793,-0.3777,-0.3774,-0.3776,-0.3771,-0.3774,-0.3769,-0.3768,-0.3766,-0.3762,-0.3753,-0.3747,-0.3739,-0.3718,-0.3717,-0.3708,-0.3705,-0.3703,-0.37,-0.3689,-0.3685,-0.3729,-0.3729,-0.3729,0,0,-0.3792,-0.379,-0.3783,-0.3773,-0.377,-0.376,-0.3774,-0.3762,-0.3755,-0.3766,-0.3751,-0.375,-0.3745,-0.3726,-0.3718,-0.3725,-0.3688,-0.37,-0.3698,-0.3697,-0.3687,-0.3683,-0.3679,-0.3727,-0.3728,-0.3728,0,0,-0.3765,-0.3763,-0.3748,-0.3745,-0.374,-0.3741,-0.3738,-0.3735,-0.3734,-0.3719,-0.3727,-0.3718,-0.3703,-0.3699,-0.3695,-0.3667,-0.3673,-0.3664,-0.3647,-0.3636,-0.3633,-0.363,-0.3619,-0.3615,-0.3662,-0.3662,-0.3662,0,-0.3751,-0.3735,-0.374,-0.3728,-0.3723,-0.3733,-0.3718,-0.3715,-0.3707,-0.3704,-0.3711,-0.3692,-0.369,-0.367,-0.3663,-0.366,-0.3656,-0.3664,-0.3633,-0.363,-0.3627,-0.3617,-0.3613,-0.3661,-0.3661,-0.3661,-0.3661,0,-0.3717,-0.3707,-0.3696,-0.3688,-0.3682,-0.3669,-0.3672,-0.3665,-0.3669,-0.367,-0.3654,-0.3652,-0.3643,-0.3639,-0.3643,-0.362,-0.3624,-0.3632,-0.3645,-0.3622,-0.3612,-0.3608,-0.3659,-0.3659,-0.366,-0.366,0,0,-0.3679,-0.3675,-0.367,-0.3667,-0.3663,-0.3654,-0.3641,-0.3633,-0.3627,-0.3622,-0.3611,-0.3598,-0.3605,-0.3601,-0.3605,-0.3595,-0.3572,-0.3604,-0.3604,-0.3598,-0.3546,-0.354,-0.3535,-0.3577,-0.3576,-0.3575,-0.3547,0,-0.3651,-0.3629,-0.3633,-0.3611,-0.36,-0.361,-0.3599,-0.3595,-0.3595,-0.3587,-0.3587,-0.3578,-0.3588,-0.3586,-0.3577,-0.3577,-0.3562,-0.3579,-0.3566,-0.3566,-0.3566,-0.353,-0.3523,-0.3496,-0.3543,-0.3542,-0.3542,0,-0.3615,-0.3609,-0.3585,-0.3582,-0.3578,-0.3568,-0.3561,-0.3553,-0.3548,-0.3549,-0.3544,-0.355,-0.3537,-0.3551,-0.3533,-0.3545,-0.354,-0.3539,-0.3538,-0.3537,-0.3552,-0.3527,-0.3487,-0.3483,-0.3536,-0.3537,-0.3537,0,-0.3589,-0.3574,-0.3558,-0.3555,-0.3551,-0.3544,-0.3542,-0.3539,-0.3533,-0.3527,-0.3523,-0.3516,-0.3511,-0.3505,-0.3509,-0.3518,-0.349,-0.3504,-0.349,-0.349,-0.3483,-0.3483,-0.3442,-0.3481,-0.3482,-0.3482,-0.3482,0,-0.3557,-0.3542,-0.3546,-0.3536,-0.352,-0.3525,-0.3509,-0.3508,-0.3505,-0.3496,-0.3504,-0.3494,-0.35,-0.3491,-0.3494,-0.3478,-0.3477,-0.3477,-0.3477,-0.3475,-0.3475,-0.3472,-0.3473,-0.3481,-0.3481,-0.3481,-0.3481,0,-0.3524,-0.3526,-0.3509,-0.3507,-0.3506,-0.3494,-0.3493,-0.3483,-0.3485,-0.3472,-0.347,-0.3471,-0.3461,-0.3464,-0.3454,-0.3456,-0.3436,-0.344,-0.3437,-0.3438,-0.3423,-0.3424,-0.3377,-0.3371,-0.3415,-0.3415,-0.3415,0,-0.3502,-0.3491,-0.3488,-0.3482,-0.3479,-0.347,-0.3464,-0.3469,-0.3463,-0.3457,-0.3449,-0.344,-0.3432,-0.3416,-0.3416,-0.3408,-0.3411,-0.3395,-0.341,-0.3408,-0.341,-0.341,-0.3409,-0.3392,-0.3392,-0.3391,-0.3391,0,-0.3464,-0.3466,-0.3458,-0.345,-0.3443,-0.3437,-0.3432,-0.3426,-0.3431,-0.3424,-0.3414,-0.3408,-0.3397,-0.3388,-0.338,-0.3379,-0.3385,-0.3386,-0.3383,-0.338,-0.3379,-0.3378,-0.3428,-0.3387,-0.3388,-0.3388,-0.3388,-0.3388,-0.3436,-0.3427,-0.3423,-0.3413,-0.341,-0.3405,-0.3396,-0.3396,-0.3387,-0.3379,-0.3382,-0.337,-0.3367,-0.3358,-0.3355,-0.3346,-0.3352,-0.3347,-0.3345,-0.3343,-0.3341,-0.3381,-0.3345,-0.3345,-0.3345,-0.3345,-0.3345,0,-0.3398,-0.3396,-0.3387,-0.3379,-0.3372,-0.3379,-0.3374,-0.3367,-0.3356,-0.3352,-0.3345,-0.3333,-0.3324,-0.3324,-0.3316,-0.3309,-0.3311,-0.3306,-0.3306,-0.3306,-0.3337,-0.334,-0.3304,-0.3304,-0.3304,-0.3304,-0.3304,-0.3304,-0.3377,-0.3361,-0.3362,-0.3345,-0.3343,-0.3331,-0.3327,-0.3323,-0.332,-0.3306,-0.3298,-0.3299,-0.3296,-0.3288,-0.328,-0.328,-0.3276,-0.3269,-0.3271,-0.3299,-0.3304,-0.3307,-0.3311,-0.3269,-0.3269,-0.324,-0.324,-0.324]},{"header":{"parameterUnit":"m.s-1","parameterCategory":1,"la1":30.2991,"la2":30.254,"lo1":-89.0895,"lo2":-89.0444,"dx":0.0017,"dy":0.0017,"nx":28,"ny":28,"refTime":"2022-11-29T09:00:00:Z","depth":0,"parameterNumber":3,"parameterNumberName":"V-component_of_WINDS"},"data":[0,0,0,0,0,0,0,0,0,0,0,0,0,0,0,0,0,0,0,0,0,0,0,0,0,0,0,0,0,0,0,0,0,0,0,0,0,0,0,0,0,0,0,0,0,0,0,0,0,0,0,0,0,0,0,0,0,0,5.6603,5.6604,0,5.676,5.6762,5.6764,5.6771,5.6769,5.6767,5.6766,5.6921,5.6927,5.6932,0,0,0,0,0,0,0,0,0,0,0,0,0,5.6302,5.6308,5.6602,5.6604,5.6606,5.676,5.6762,5.6764,5.6771,5.6769,5.6767,5.6765,5.6919,5.6926,5.6933,0,0,0,0,0,0,0,0,0,0,0,0,0,5.6443,5.6309,5.6602,5.6628,5.6632,5.676,5.6762,5.6765,5.6772,5.6769,5.6766,5.6764,5.6917,5.6925,5.6934,5.7043,0,0,5.6961,5.6965,0,0,0,0,0,0,0,0,5.6435,5.6454,5.6623,5.6627,5.6632,5.6743,5.6713,5.6858,5.6772,5.6719,5.6765,5.6762,5.6864,5.6877,5.6912,5.7051,5.7057,5.6962,5.6967,5.6971,5.6973,0,0,0,0,0,0,0,5.6426,5.6448,5.6665,5.6625,5.6631,5.6631,5.6648,5.6741,5.6804,5.6723,5.6724,5.6743,5.6865,5.6904,5.6916,5.706,5.6961,5.6969,5.6974,5.6978,5.7298,5.7301,0,0,0,0,0,0,5.6411,5.6439,5.666,5.6669,5.6525,5.6639,5.6658,5.671,5.6804,5.6815,5.6745,5.6743,5.689,5.6905,5.6921,5.7057,5.6971,5.6979,5.6984,5.7295,5.7298,5.7302,0,0,0,0,0,0,5.6405,5.6431,5.6653,5.6555,5.6583,5.6647,5.6706,5.6715,5.6753,5.682,5.6831,5.6773,5.6888,5.6909,5.7014,5.7063,5.6983,5.6991,5.7291,5.7296,5.73,5.7329,0,0,0,0,0,0,5.6396,5.6429,5.6472,5.6556,5.6588,5.6745,5.6709,5.672,5.6769,5.6767,5.6849,5.686,5.6888,5.7001,5.7023,5.7073,5.6998,5.7287,5.7293,5.7299,5.7324,5.7335,5.7343,0,0,0,0,0,5.6386,5.6472,5.6474,5.6501,5.6644,5.6748,5.6766,5.6798,5.6773,5.6816,5.686,5.6857,5.7054,5.7011,5.7036,5.709,5.7284,5.7291,5.7298,5.732,5.7333,5.7343,0,0,0,0,0,0,5.6389,5.6483,5.6487,5.6603,5.6668,5.6749,5.6805,5.681,5.6881,5.6877,5.6911,5.693,5.7034,5.7072,5.7024,5.7202,5.7166,5.7178,5.7174,5.7186,5.7195,5.7184,5.7005,0,0,0,0,0,5.6404,5.6482,5.6559,5.6654,5.6687,5.674,5.6786,5.6806,5.6873,5.69,5.6951,5.7015,5.7091,5.714,5.7214,5.7329,5.7348,5.7379,5.7388,5.7396,5.7407,5.7472,5.7487,5.7326,5.7326,5.7326,0,0,5.6435,5.6496,5.6542,5.6657,5.6709,5.6788,5.6763,5.6847,5.6906,5.6912,5.7016,5.7055,5.7128,5.724,5.7291,5.7275,5.7455,5.7405,5.7411,5.7417,5.7481,5.7496,5.751,5.7331,5.733,5.7329,0,0,5.6531,5.6585,5.6672,5.6725,5.6806,5.6841,5.6862,5.6943,5.697,5.7075,5.7082,5.7151,5.7281,5.7334,5.7378,5.7497,5.7498,5.7519,5.757,5.7633,5.7646,5.7657,5.7701,5.7716,5.753,5.753,5.753,0,5.6559,5.668,5.6715,5.68,5.6851,5.6862,5.695,5.6999,5.7099,5.7133,5.7113,5.7279,5.7329,5.7454,5.7483,5.7517,5.7542,5.7511,5.7641,5.7653,5.7664,5.7707,5.7723,5.7532,5.7532,5.7532,5.7531,0,5.671,5.6794,5.6854,5.6954,5.701,5.7096,5.7143,5.7196,5.721,5.7247,5.7354,5.7415,5.7502,5.7533,5.7547,5.766,5.7648,5.7634,5.7599,5.7682,5.7722,5.7738,5.7535,5.7534,5.7534,5.7533,0,0,5.6813,5.6933,5.6954,5.7001,5.7091,5.7156,5.7242,5.733,5.7375,5.7443,5.7516,5.7627,5.7617,5.7666,5.7686,5.7742,5.7834,5.7722,5.7724,5.7742,5.7964,5.7975,5.7993,5.7835,5.7838,5.784,5.7959,0,5.6921,5.7078,5.7113,5.7247,5.7325,5.7338,5.7413,5.7476,5.7513,5.7584,5.7623,5.7703,5.7681,5.7712,5.7767,5.7811,5.7879,5.7802,5.7903,5.7906,5.7886,5.8014,5.8025,5.8134,5.7974,5.7977,5.7979,0,5.7068,5.7144,5.7287,5.7369,5.7403,5.747,5.7555,5.7622,5.7694,5.7717,5.7774,5.7788,5.7877,5.7837,5.796,5.7908,5.795,5.7978,5.7983,5.7994,5.7948,5.803,5.8169,5.8186,5.8004,5.8002,5.8,0,5.7131,5.7268,5.7372,5.7411,5.7509,5.7556,5.7599,5.7668,5.7719,5.7792,5.7825,5.7906,5.7951,5.8013,5.8049,5.8016,5.817,5.8132,5.8191,5.8191,5.8224,5.8222,5.8373,5.8249,5.8249,5.8249,5.8248,0,5.7249,5.7336,5.7402,5.7466,5.7564,5.7603,5.7698,5.774,5.7802,5.7873,5.7888,5.7954,5.7997,5.8069,5.8097,5.8196,5.8215,5.8236,5.8243,5.8236,5.8234,5.8265,5.8259,5.8253,5.8252,5.8251,5.825,0,5.7336,5.7384,5.7499,5.7583,5.7606,5.7675,5.7747,5.7809,5.7846,5.7937,5.796,5.8019,5.8105,5.8146,5.8252,5.8271,5.8383,5.8384,5.836,5.8363,5.8421,5.8416,5.8599,5.8626,5.8483,5.8484,5.8485,0,5.7409,5.7477,5.757,5.7621,5.7666,5.7746,5.78,5.7839,5.7894,5.7982,5.8033,5.8121,5.8193,5.8329,5.838,5.8461,5.8465,5.8524,5.8477,5.8469,5.8468,5.8464,5.8471,5.8532,5.8533,5.8535,5.8535,0,5.7534,5.7555,5.7632,5.7719,5.7784,5.7853,5.7921,5.7961,5.8011,5.8072,5.8162,5.8218,5.8327,5.8414,5.8499,5.8541,5.8547,5.855,5.8568,5.8563,5.8547,5.8558,5.8385,5.8546,5.8545,5.8544,5.8543,5.8543,5.7617,5.768,5.7756,5.7842,5.7898,5.7962,5.8026,5.8073,5.8149,5.8243,5.8261,5.8357,5.8427,5.8543,5.8588,5.8662,5.8649,5.8675,5.8682,5.8688,5.8692,5.8534,5.8677,5.8677,5.8677,5.8677,5.8676,0,5.7744,5.7795,5.7874,5.7971,5.8039,5.8041,5.8117,5.8173,5.8258,5.8324,5.8396,5.8499,5.8584,5.8642,5.8727,5.8776,5.8781,5.8797,5.8794,5.8804,5.8698,5.8675,5.8792,5.8792,5.8792,5.8792,5.8792,5.8792,5.7819,5.7925,5.7955,5.8089,5.8137,5.8234,5.8277,5.8336,5.8389,5.8506,5.8577,5.8615,5.8678,5.8769,5.8846,5.8861,5.8892,5.8909,5.8923,5.8823,5.8811,5.88,5.8778,5.8915,5.8915,5.9024,5.9025,5.9026]}]]